Location: Lalanga
(4.5882°N, 32.9072°E)
Time: 04:23:11
(UTC+00:00)

ATLAS 3B R/B - Pass Details

Date: 24 January 2020
Orbit: 1027 x 1168 km, 63.8° (Epoch: 09 February)

Event Time Altitude Azimuth Distance (km) Brightness Sun altitude
Rises 18:18:21 0° 223° (SW) 3,874 6.5 -34.0°
Reaches altitude 10° 18:21:21 10° 233° (SW) 2,895 5.7 -34.7°
Maximum altitude 18:27:14 31° 293° (WNW) 1,734 4.0 -36.1°
Enters shadow 18:28:41 29° 316° (NW) 1,817 4.0 -36.4°
